Raleigh-Durham Airport, NC

3:09 PM EDT on September 26, 2017 (GMT -0400)
Raleigh-Durham International

Weather History for KRDU - May, 2012

Change the Weather History Date:

Tuesday, May 1, 2012

  Actual Average Record
Temperature  
Mean Temperature 77 °F 64 °F  
Max Temperature 86 °F 76 °F 92 °F (2007)
Min Temperature 67 °F 52 °F 36 °F (1963)
Degree Days  
Heating Degree Days 0 4  
Month to date heating degree days 0 4  
Since 1 July heating degree days 2518 3193  
Cooling Degree Days 12 3  
Month to date cooling degree days 12 3  
Year to date cooling degree days 101 64  
Growing Degree Days 25 (Base 50)    
Moisture  
Dew Point 64 °F    
Average Humidity 72    
Maximum Humidity 93    
Minimum Humidity 51    
Precipitation  
Precipitation 0.00 in 0.09 in 1.17 in (1989)
Month to date precipitation 0.00 0.09  
Year to date precipitation 11.89 13.85  
Snow  
Snow 0.00 in 0.00 in T in (1997)
Month to date snowfall 0.0  
Since 1 July snowfall 6.1  
Snow Depth -    
Sea Level Pressure  
Sea Level Pressure 30.10 in    
Wind  
Wind Speed 10 mph (SW)    
Max Wind Speed 22 mph    
Max Gust Speed 25 mph    
Visibility 10 miles    
Events Thunderstorm    
T = Trace of Precipitation, MM = Missing Value Source: NWS Daily Summary

Daily Weather History Graph

Daily Weather History Graph

Search for Another Location

Airport or City:

Trip Planner

Search our weather history database for the weather conditions in past years. The results will help you decide how hot, cold, wet, or windy it might be!

Date:

Astronomy

May. 01, 2012 Rise Set
Actual Time 6:22 AM EDT 8:02 PM EDT
Civil Twilight 5:54 AM EDT 8:30 PM EDT
Nautical Twilight 5:21 AM EDT 9:03 PM EDT
Astronomical Twilight 4:46 AM EDT 9:38 PM EDT
Moon 3:13 PM EDT (5/1) 3:08 AM EDT (5/1)
Length of Visible Light 14h 35m
Length of Day
13h 40m
Waxing Gibbous, 73% of the Moon is Illuminated
May 1
Waxing Gibbous
May 5
Full
May 12
Last Quarter
May 20
New
May 28
First Quarter

Hourly Weather History & Observations

Time (EDT) Temp. Heat Index Dew Point Humidity Pressure Visibility Wind Dir Wind Speed Gust Speed Precip Events Conditions
12:51 AM 71.1 °F - 64.0 °F 78% 30.14 in 10.0 mi SSW 13.8 mph 19.6 mph N/A   Mostly Cloudy
1:51 AM 69.1 °F - 63.0 °F 81% 30.11 in 10.0 mi SSW 11.5 mph - N/A   Mostly Cloudy
2:51 AM 68.0 °F - 63.0 °F 84% 30.09 in 10.0 mi SW 12.7 mph - N/A   Mostly Cloudy
3:51 AM 66.9 °F - 63.0 °F 87% 30.12 in 9.0 mi SW 9.2 mph - N/A   Mostly Cloudy
4:24 AM 68.0 °F - 62.6 °F 83% 30.12 in 9.0 mi SW 10.4 mph - N/A   Mostly Cloudy
4:51 AM 68.0 °F - 64.0 °F 87% 30.12 in 10.0 mi SW 10.4 mph - N/A   Overcast
5:51 AM 66.9 °F - 64.0 °F 90% 30.12 in 9.0 mi SSW 10.4 mph - N/A   Mostly Cloudy
6:37 AM 66.2 °F - 64.4 °F 94% 30.15 in 7.0 mi SW 9.2 mph - N/A   Mostly Cloudy
6:51 AM 66.9 °F - 64.0 °F 90% 30.15 in 7.0 mi SW 8.1 mph - N/A   Mostly Cloudy
7:51 AM 68.0 °F - 64.9 °F 90% 30.17 in 7.0 mi SW 10.4 mph - N/A   Overcast
8:51 AM 70.0 °F - 64.9 °F 84% 30.16 in 9.0 mi WSW 15.0 mph - N/A   Mostly Cloudy
9:37 AM 73.4 °F - 64.4 °F 73% 30.17 in 10.0 mi WSW 15.0 mph - N/A   Mostly Cloudy
9:51 AM 73.9 °F - 64.0 °F 71% 30.15 in 10.0 mi SW 20.7 mph 24.2 mph N/A   Mostly Cloudy
10:51 AM 75.9 °F - 63.0 °F 64% 30.15 in 10.0 mi WSW 15.0 mph - N/A   Mostly Cloudy
11:51 AM 78.8 °F - 62.6 °F 57% 30.14 in 10.0 mi SW 13.8 mph 24.2 mph N/A   Mostly Cloudy
12:51 PM 81.0 °F 82.2 °F 63.0 °F 54% 30.11 in 10.0 mi SW 16.1 mph 23.0 mph N/A   Mostly Cloudy
1:51 PM 82.9 °F 84.4 °F 64.0 °F 53% 30.09 in 10.0 mi SW 15.0 mph 23.0 mph N/A   Mostly Cloudy
2:51 PM 84.9 °F 87.1 °F 66.0 °F 53% 30.08 in 10.0 mi WSW 13.8 mph - N/A   Scattered Clouds
3:51 PM 84.9 °F 86.6 °F 64.9 °F 51% 30.05 in 10.0 mi WSW 15.0 mph 19.6 mph N/A   Mostly Cloudy
4:51 PM 84.0 °F 86.3 °F 66.0 °F 55% 30.05 in 10.0 mi WSW 10.4 mph - N/A   Mostly Cloudy
5:51 PM 82.9 °F 85.4 °F 66.9 °F 58% 30.05 in 10.0 mi SW 5.8 mph - N/A   Mostly Cloudy
6:30 PM 82.4 °F 84.6 °F 66.2 °F 58% 30.06 in 10.0 mi West 4.6 mph - N/A Thunderstorm Thunderstorm
6:51 PM 82.0 °F 83.8 °F 64.9 °F 56% 30.04 in 10.0 mi West 3.5 mph - N/A Thunderstorm Thunderstorm
7:36 PM 78.8 °F - 66.2 °F 65% 30.06 in 10.0 mi Calm Calm - N/A   Mostly Cloudy
7:51 PM 79.0 °F - 66.9 °F 66% 30.05 in 10.0 mi Calm Calm - N/A   Mostly Cloudy
8:51 PM 77.0 °F - 66.9 °F 71% 30.03 in 10.0 mi South 6.9 mph - N/A   Mostly Cloudy
9:51 PM 78.1 °F - 64.0 °F 62% 30.05 in 10.0 mi SSW 5.8 mph - N/A   Mostly Cloudy
10:51 PM 75.9 °F - 63.0 °F 64% 30.06 in 10.0 mi SSW 5.8 mph - N/A   Mostly Cloudy
11:51 PM 73.9 °F - 63.0 °F 68% 30.07 in 10.0 mi SSW 6.9 mph - N/A   Scattered Clouds